SL-14 DEB

Satellite information

Favourite Embed

Satellite Type and Status

DEBRISIN ORBIT

Key statistics

Satellite SL-14 DEB at a glance.

Uptime

13945

Days in orbit

Revolutions

≈ 14.3

Per day

Orbit

LEO

Low Earth Orbit

Inclination

82.3

Latest

Satellite identification and parameters

Extended collection of information and parameters for SL-14 DEB.

Object identification

Identified? True

Debris? True

Object name: SL-14 DEB

International designator: 1987-068AE

Object number (NORAD): 25203

Object ID (CCSDS): 25203

Country: COMMONWEALTH OF INDEPENDENT STATES (CIS)

Current information (Y/N): Y

RCS size: SMALL

Orbital parameters

Period: 100.981 minutes

Inclination: 82.2649 deg

SMA: 7183.245 km

Apoapsis: 870.795 km

Periapsis: 739.426 km

RAAN: 71.7909 deg

Eccentricy: 0.0091441

Argument of periapsis: 357.9935 deg

Mean anomaly: 2.0867 deg

Mean motion: 14.26007165 rev/day

Mean motion (dot): 0.00001887 rev/day2

B* drag term: 0.00075106 1/REarth

Two-line elements (TLE)

Creation date: Oct. 22, 2025, 12:06 a.m.

Reference frame: TEME

Reference center: EARTH

Epoch: Oct. 21, 2025, 7:37 p.m. UTC

TLE line 0: 0 SL-14 DEB

TLE line 1: 1 25203U 87068AE 25294.81791522 .00001887 00000-0 75106-3 0 9994

TLE line 2: 2 25203 82.2649 71.7909 0091441 357.9935 2.0867 14.26007165431124

Live tracking on map

Real-time ground track for satellite SL-14 DEB.

In-orbit conjunctions

A list of the most updated potential collisions computed for object SL-14 DEB.

Target Orbit TCA Probability of collision Miss distance Type
CZ-6A DEB SSO 2025-08-21 14:35:25 0.0001227613 144.0 (m) DEBRIS
FENGYUN 1C DEB MEO 2025-04-06 23:57:58 0.0001649726 17.0 (m) DEBRIS
FENGYUN 1C DEB SSO 2025-03-11 06:00:34 0.0001028089 65.0 (m) DEBRIS
IRIDIUM 33 DEB LEO 2024-11-12 06:21:22 0.0001910355 975.0 (m) DEBRIS
FENGYUN 1C DEB SSO 2024-09-22 23:05:13 0.0001346157 90.0 (m) DEBRIS

Associated space launch

Second generation soviet meteorological satellite

SL-14 DEB was lifted into orbit during the mission ‘Tsiklon-3 | Meteor-2 16’, on board a Tsiklon-3 space rocket.

The launch took place on Aug. 18, 1987, 2:27 a.m. from 32/1.

For more information about the launch, click the button.

Launch to space Tsiklon-3 | Meteor-2 16
Tsiklon-3 | Meteor-2 16

Agency: N/A

Status: Launch Successful

Launch date: Aug. 18, 1987, 2:27 a.m. UTC

Rocket: Tsiklon-3

Launch pad: 32/1

Location: Plesetsk Cosmodrome, Russian Federation

...

Latest news about this satellite

There are no fresh news available about this satellite. Check back as we update our databases every day.


Newsletter sign-up

Weekly statistics, charts and insights to help you stay on top of the space industry.